Belmar, NJ

9:41 PM EST on February 26, 2017 (GMT -0500)
Allaire

Weather History for KBLM - May, 2013

Change the Weather History Date:

Sunday, May 19, 2013

  Actual Average Record
Temperature  
Mean Temperature 56 °F -  
Max Temperature 57 °F 65 °F 87 °F (1998)
Min Temperature 55 °F 49 °F 35 °F (2002)
Degree Days  
Heating Degree Days 9    
Growing Degree Days 6 (Base 50)    
Moisture  
Dew Point 55 °F    
Average Humidity 96    
Maximum Humidity 100    
Minimum Humidity 94    
Precipitation  
Precipitation 0.30 in - - ()
Sea Level Pressure  
Sea Level Pressure 30.25 in    
Wind  
Wind Speed 8 mph (SE)    
Max Wind Speed 16 mph    
Max Gust Speed 22 mph    
Visibility 4 miles    
Events      
Averages and records for this station are not official NWS values.
T = Trace of Precipitation, MM = Missing Value Source: NWS Daily Summary

Daily Weather History Graph

Daily Weather History Graph

Search for Another Location

Airport or City:

Trip Planner

Search our weather history database for the weather conditions in past years. The results will help you decide how hot, cold, wet, or windy it might be!

Date:

Astronomy

May. 19, 2013 Rise Set
Actual Time 5:37 AM EDT 8:09 PM EDT
Civil Twilight 5:05 AM EDT 8:40 PM EDT
Nautical Twilight 4:27 AM EDT 9:19 PM EDT
Astronomical Twilight 3:43 AM EDT 10:03 PM EDT
Moon 2:10 PM EDT (5/19) 1:59 AM EDT (5/19)
Length of Visible Light 15h 34m
Length of Day
14h 32m
Waxing Gibbous, 65% of the Moon is Illuminated
May 19
Waxing Gibbous
May 25
Full
May 31
Last Quarter
Jun 8
New
Jun 16
First Quarter

Hourly Weather History & Observations

Time (EDT) Temp. Dew Point Humidity Pressure Visibility Wind Dir Wind Speed Gust Speed Precip Events Conditions
12:15 AM 55.4 °F 55.4 °F 100% 30.30 in 8.0 mi SSE 8.1 mph - 0.01 in   Overcast
12:35 AM 57.2 °F 55.4 °F 94% 30.30 in 7.0 mi SSE 8.1 mph - 0.01 in   Overcast
12:55 AM 55.4 °F 55.4 °F 100% 30.31 in 5.0 mi SE 6.9 mph - 0.02 in   Overcast
1:15 AM 55.4 °F 53.6 °F 94% 30.30 in 9.0 mi SSE 8.1 mph - 0.05 in   Overcast
1:35 AM 55.4 °F 53.6 °F 94% 30.29 in 7.0 mi SE 8.1 mph - 0.06 in   Overcast
1:55 AM 55.4 °F 53.6 °F 94% 30.29 in 10.0 mi SE 5.8 mph - 0.06 in   Overcast
2:15 AM 55.4 °F 53.6 °F 94% 30.29 in 9.0 mi SE 6.9 mph - 0.01 in   Mostly Cloudy
2:35 AM 55.4 °F 53.6 °F 94% 30.28 in 7.0 mi SE 9.2 mph - 0.02 in   Overcast
2:55 AM 55.4 °F 53.6 °F 94% 30.28 in 10.0 mi SE 8.1 mph - 0.02 in   Overcast
3:15 AM 55.4 °F 53.6 °F 94% 30.28 in 10.0 mi ESE 8.1 mph - N/A   Overcast
3:35 AM 55.4 °F 53.6 °F 94% 30.27 in 10.0 mi SE 9.2 mph - N/A   Overcast
3:55 AM 55.4 °F 53.6 °F 94% 30.27 in 10.0 mi SE 8.1 mph - N/A   Overcast
4:15 AM 55.4 °F 53.6 °F 94% 30.27 in 9.0 mi ESE 8.1 mph - 0.01 in   Overcast
4:35 AM 55.4 °F 53.6 °F 94% 30.28 in 10.0 mi ESE 8.1 mph - 0.03 in   Overcast
4:55 AM 55.4 °F 53.6 °F 94% 30.27 in 8.0 mi ESE 9.2 mph - 0.03 in   Overcast
5:15 AM 55.4 °F 53.6 °F 94% 30.27 in 8.0 mi ESE 10.4 mph - 0.01 in   Overcast
5:35 AM 55.4 °F 53.6 °F 94% 30.28 in 10.0 mi ESE 11.5 mph - 0.01 in   Overcast
5:55 AM 55.4 °F 53.6 °F 94% 30.28 in 10.0 mi ESE 9.2 mph - 0.01 in   Overcast
6:15 AM 55.4 °F 53.6 °F 94% 30.29 in 8.0 mi SE 10.4 mph - N/A   Overcast
6:35 AM 55.4 °F 53.6 °F 94% 30.29 in 5.0 mi SE 10.4 mph 16.1 mph N/A   Overcast
6:55 AM 55.4 °F 55.4 °F 100% 30.29 in 4.0 mi SE 9.2 mph - 0.01 in   Overcast
7:15 AM 55.4 °F 55.4 °F 100% 30.29 in 4.0 mi SE 9.2 mph 16.1 mph N/A   Overcast
7:35 AM 55.4 °F 55.4 °F 100% 30.29 in 5.0 mi SE 9.2 mph - N/A   Overcast
8:15 AM 55.4 °F 53.6 °F 94% 30.29 in 2.5 mi SE 12.7 mph 17.3 mph 0.01 in   Overcast
8:35 AM 55.4 °F 53.6 °F 94% 30.30 in 3.0 mi ESE 8.1 mph - 0.02 in   Overcast
8:55 AM 57.2 °F 55.4 °F 94% 30.30 in 3.0 mi SE 11.5 mph 16.1 mph 0.03 in   Overcast
9:15 AM 55.4 °F 53.6 °F 94% 30.30 in 3.0 mi ESE 11.5 mph 16.1 mph N/A   Overcast
9:35 AM 55.4 °F 55.4 °F 100% 30.31 in 3.0 mi SE 10.4 mph - N/A   Overcast
9:55 AM 55.4 °F 55.4 °F 100% 30.31 in 2.0 mi SE 10.4 mph 16.1 mph 0.01 in   Overcast
10:15 AM 55.4 °F 55.4 °F 100% 30.31 in 2.5 mi ESE 10.4 mph 16.1 mph 0.01 in   Overcast
10:55 AM 55.4 °F 53.6 °F 94% 30.30 in 4.0 mi SE 13.8 mph 20.7 mph 0.03 in   Overcast
11:15 AM 55.4 °F 55.4 °F 100% 30.30 in 3.0 mi SE 12.7 mph 19.6 mph N/A   Overcast
11:35 AM 55.4 °F 55.4 °F 100% 30.30 in 4.0 mi ESE 16.1 mph 20.7 mph N/A   Overcast
11:55 AM 55.4 °F 53.6 °F 94% 30.29 in 3.0 mi ESE 13.8 mph 17.3 mph N/A   Overcast
12:15 PM 55.4 °F 53.6 °F 94% 30.29 in 2.5 mi ESE 11.5 mph 17.3 mph 0.01 in   Overcast
12:35 PM 55.4 °F 53.6 °F 94% 30.28 in 2.0 mi ESE 11.5 mph 21.9 mph 0.01 in   Overcast
12:55 PM 55.4 °F 53.6 °F 94% 30.28 in 2.0 mi ESE 12.7 mph 19.6 mph 0.02 in   Overcast
1:15 PM 55.4 °F 53.6 °F 94% 30.27 in 2.0 mi ESE 12.7 mph 18.4 mph N/A   Overcast
1:35 PM 55.4 °F 53.6 °F 94% 30.26 in 1.8 mi SE 11.5 mph - 0.01 in   Overcast
1:55 PM 55.4 °F 53.6 °F 94% 30.26 in 2.0 mi SE 10.4 mph 17.3 mph 0.01 in   Overcast
2:15 PM 55.4 °F 53.6 °F 94% 30.25 in 2.0 mi ESE 11.5 mph 17.3 mph N/A   Overcast
2:35 PM 57.2 °F 55.4 °F 94% 30.25 in 2.0 mi SE 9.2 mph - N/A   Overcast
3:15 PM 57.2 °F 55.4 °F 94% 30.24 in 3.0 mi SE 10.4 mph - N/A   Overcast
3:35 PM 57.2 °F 55.4 °F 94% 30.22 in 2.0 mi SE 10.4 mph - 0.01 in   Overcast
3:55 PM 57.2 °F 55.4 °F 94% 30.22 in 1.8 mi SE 8.1 mph - 0.02 in   Overcast
4:15 PM 57.2 °F 55.4 °F 94% 30.21 in 1.8 mi ESE 6.9 mph - N/A   Overcast
4:35 PM 57.2 °F 55.4 °F 94% 30.21 in 2.0 mi ESE 8.1 mph - 0.01 in   Overcast
4:55 PM 57.2 °F 55.4 °F 94% 30.21 in 1.5 mi SE 9.2 mph - 0.01 in   Overcast
5:15 PM 57.2 °F 55.4 °F 94% 30.20 in 2.0 mi ESE 9.2 mph - 0.01 in   Overcast
5:35 PM 57.2 °F 55.4 °F 94% 30.20 in 3.0 mi ESE 8.1 mph - 0.01 in   Overcast
5:55 PM 57.2 °F 57.2 °F 100% 30.20 in 1.5 mi ESE 5.8 mph - 0.01 in   Overcast
6:15 PM 57.2 °F 57.2 °F 100% 30.20 in 1.2 mi ESE 8.1 mph - N/A   Overcast
6:35 PM 57.2 °F 57.2 °F 100% 30.20 in 1.5 mi ESE 4.6 mph - 0.01 in   Overcast
6:55 PM 57.2 °F 55.4 °F 94% 30.20 in 1.0 mi ESE 5.8 mph - 0.01 in   Overcast
7:15 PM 57.2 °F 55.4 °F 94% 30.20 in 1.0 mi ESE 5.8 mph - N/A   Overcast
7:35 PM 57.2 °F 55.4 °F 94% 30.20 in 1.0 mi East 4.6 mph - N/A   Overcast
7:55 PM 57.2 °F 57.2 °F 100% 30.20 in 0.8 mi East 4.6 mph - N/A   Overcast
8:15 PM 57.2 °F 55.4 °F 94% 30.20 in 0.5 mi East 4.6 mph - N/A   Overcast
8:35 PM 57.2 °F 57.2 °F 100% 30.19 in 0.8 mi East 5.8 mph - N/A   Overcast
8:55 PM 57.2 °F 57.2 °F 100% 30.18 in 0.8 mi SE 5.8 mph - N/A   Overcast
9:15 PM 57.2 °F 57.2 °F 100% 30.17 in 0.8 mi SE 5.8 mph - N/A   Overcast
9:35 PM 57.2 °F 55.4 °F 94% 30.17 in 0.5 mi SE 4.6 mph - N/A   Overcast
9:55 PM 57.2 °F 55.4 °F 94% 30.17 in 0.5 mi South 4.6 mph - N/A   Overcast
10:15 PM 57.2 °F 55.4 °F 94% 30.18 in 0.5 mi Calm Calm - N/A   Overcast
10:35 PM 57.2 °F 57.2 °F 100% 30.19 in 0.5 mi Calm Calm - N/A   Overcast
10:55 PM 57.2 °F 57.2 °F 100% 30.18 in 0.5 mi Calm Calm - N/A   Overcast
11:15 PM 57.2 °F 57.2 °F 100% 30.18 in 0.2 mi Calm Calm - N/A   Overcast
11:35 PM 57.2 °F 57.2 °F 100% 30.18 in 0.2 mi Calm Calm - N/A   Overcast